This is the latest recevied weather packets stored in our database for station/object IT9CNT. If no packets are shown the sender has not sent any weather packets the latest 10 day(s).
| Time | Temp. | Humidity | Pressure | Rain* | Wind** | Luminosity | Snow |
|---|---|---|---|---|---|---|---|
| 1788117723 | 28.33° C | 83% | 1013.2 hPa | 9.91 mm | - | - | - |
| 1788117663 | 28.33° C | 83% | 1013.1 hPa | 9.91 mm | - | - | - |
| 1788117603 | 28.33° C | 83% | 1013 hPa | 9.91 mm | - | - | - |
| 1788117543 | 28.33° C | 83% | 1013 hPa | 8.64 mm | - | - | - |
| 1788117483 | 28.33° C | 83% | 1013.3 hPa | 8.64 mm | - | - | - |
| 1788117423 | 28.33° C | 83% | 1013 hPa | 8.64 mm | - | - | - |
| 1788117363 | 28.33° C | 83% | 1013.1 hPa | 8.64 mm | - | - | - |
| 1788117303 | 28.33° C | 84% | 1013.1 hPa | 8.38 mm | - | - | - |
| 1788117243 | 28.33° C | 84% | 1013.2 hPa | 8.13 mm | - | - | - |
| 1788117183 | 28.33° C | 84% | 1013.2 hPa | 7.62 mm | - | - | - |
| 1788117123 | 28.33° C | 84% | 1013.4 hPa | 7.11 mm | - | - | - |
| 1788117063 | 28.33° C | 84% | 1013.2 hPa | 7.11 mm | - | - | - |
| 1788117003 | 28.33° C | 84% | 1013.1 hPa | 6.86 mm | - | - | - |
| 1788116943 | 28.33° C | 84% | 1012.9 hPa | 6.35 mm | - | - | - |
| 1788116883 | 28.33° C | 84% | 1013 hPa | 5.59 mm | - | - | - |
| 1788116823 | 28.33° C | 84% | 1013.1 hPa | 5.59 mm | - | - | - |
| 1788116763 | 28.33° C | 84% | 1013.3 hPa | 5.59 mm | - | - | - |
| 1788116703 | 28.33° C | 84% | 1013 hPa | 5.33 mm | - | - | - |
| 1788116643 | 28.33° C | 84% | 1012.9 hPa | 3.81 mm | - | - | - |
| 1788116583 | 28.33° C | 84% | 1013.1 hPa | 3.81 mm | - | - | - |
| 1788116523 | 28.33° C | 84% | 1013.1 hPa | 3.81 mm | - | - | - |
| 1788116463 | 28.33° C | 84% | 1013.3 hPa | 3.81 mm | - | - | - |
| 1788116403 | 28.33° C | 84% | 1013.1 hPa | 3.56 mm | - | - | - |
| 1788116343 | 28.33° C | 84% | 1012.9 hPa | 2.03 mm | - | - | - |
| 1788116283 | 28.33° C | 84% | 1013 hPa | 2.03 mm | - | - | - |
* Rain latest hour (hover to see other rain measurements)
** Current wind speed in m/s (hover to see current wind gust speed)